When you browse on this site, cookies collect data to enhance your experience and personalize the content and advertising you see.
Visit our Privacy Policy to learn more. By continuing to use the site, you agree to this use of cookies and data.
  • In Belgium
  • List of Countries
  • For 7 days
  • Water Temperature
  • Satellite Maps
  • Weather Map
  • Weather Widgets
  • user-avatar
    Login

    Hourly Weather Byala

    Today, 23 March, Saturday

    Time Temperature Precipitation Wind Pressure Humidity
    00:00 +8°C° 0 mm 2 mps 759 mmHg 70%
    01:00 +8°C° 0 mm 2 mps 758 mmHg 69%
    02:00 +8°C° 0 mm 3 mps 758 mmHg 65%
    03:00 +8°C° 0 mm 3 mps 758 mmHg 65%
    04:00 +9°C° 0 mm 3 mps 758 mmHg 65%
    05:00 +8°C° 0 mm 4 mps 758 mmHg 64%
    06:00 +8°C° 0 mm 4 mps 758 mmHg 65%
    07:00 +10°C° 0 mm 4 mps 758 mmHg 66%
    08:00 +9°C° 0 mm 5 mps 758 mmHg 66%
    09:00 +10°C° 0 mm 5 mps 758 mmHg 60%
    10:00 +12°C° 0 mm 5 mps 758 mmHg 55%
    11:00 +13°C° 0 mm 5 mps 757 mmHg 50%
    12:00 +13°C° 0 mm 5 mps 757 mmHg 48%
    13:00 +13°C° 0 mm 5 mps 757 mmHg 47%
    14:00 +13°C° 0 mm 5 mps 757 mmHg 45%
    15:00 +12°C° 0 mm 4 mps 757 mmHg 44%
    16:00 +12°C° 0 mm 4 mps 757 mmHg 43%
    17:00 +11°C° 0 mm 4 mps 757 mmHg 41%
    18:00 +11°C° 0 mm 4 mps 757 mmHg 44%
    19:00 +10°C° 0 mm 3 mps 757 mmHg 46%
    20:00 +9°C° 0 mm 3 mps 758 mmHg 49%
    21:00 +8°C° 0 mm 3 mps 758 mmHg 52%
    22:00 +7°C° 0 mm 2 mps 758 mmHg 55%
    23:00 +7°C° 0 mm 2 mps 758 mmHg 57%

    Tomorrow, 24 March, Sunday

    Time Temperature Precipitation Wind Pressure Humidity
    00:00 +6°C° 0 mm 2 mps 758 mmHg 59%
    01:00 +7°C° 0 mm 1 mps 758 mmHg 60%
    02:00 +6°C° 0 mm 1 mps 758 mmHg 61%
    03:00 +6°C° 0 mm 1 mps 758 mmHg 62%
    04:00 +5°C° 0 mm 2 mps 757 mmHg 63%
    05:00 +4°C° 0 mm 2 mps 757 mmHg 64%
    06:00 +4°C° 0 mm 3 mps 757 mmHg 59%
    07:00 +5°C° 0 mm 3 mps 757 mmHg 55%
    08:00 +5°C° 0 mm 3 mps 758 mmHg 51%
    09:00 +8°C° 0 mm 3 mps 758 mmHg 46%
    10:00 +9°C° 0 mm 3 mps 757 mmHg 41%
    11:00 +11°C° 0 mm 3 mps 757 mmHg 36%
    12:00 +11°C° 0 mm 3 mps 757 mmHg 35%
    13:00 +12°C° 0 mm 3 mps 757 mmHg 35%
    14:00 +13°C° 0 mm 3 mps 756 mmHg 34%
    15:00 +12°C° 0 mm 3 mps 756 mmHg 38%
    16:00 +11°C° 0 mm 3 mps 756 mmHg 42%
    17:00 +11°C° 0 mm 3 mps 755 mmHg 46%
    18:00 +9°C° 0 mm 3 mps 755 mmHg 52%
    19:00 +8°C° 0 mm 2 mps 755 mmHg 58%
    20:00 +7°C° 0 mm 2 mps 755 mmHg 64%
    21:00 +6°C° 0 mm 2 mps 755 mmHg 65%
    22:00 +6°C° 0 mm 2 mps 755 mmHg 66%
    23:00 +6°C° 0 mm 2 mps 755 mmHg 68%

    Day after tomorrow, 25 March, Monday

    Time Temperature Precipitation Wind Pressure Humidity
    00:00 +6°C° 0 mm 2 mps 755 mmHg 68%
    01:00 +5°C° 0 mm 2 mps 754 mmHg 69%
    02:00 +5°C° 0 mm 2 mps 754 mmHg 69%
    03:00 +5°C° 0 mm 2 mps 754 mmHg 69%
    04:00 +5°C° 0 mm 2 mps 753 mmHg 69%
    05:00 +4°C° 0 mm 3 mps 753 mmHg 69%
    06:00 +5°C° 0 mm 3 mps 753 mmHg 65%
    07:00 +7°C° 0 mm 3 mps 753 mmHg 60%
    08:00 +8°C° 0 mm 3 mps 752 mmHg 56%
    09:00 +10°C° 0 mm 3 mps 752 mmHg 50%
    10:00 +12°C° 0 mm 3 mps 752 mmHg 44%
    11:00 +14°C° 0 mm 3 mps 752 mmHg 38%
    12:00 +15°C° 0 mm 4 mps 751 mmHg 39%
    13:00 +15°C° 0 mm 5 mps 751 mmHg 39%
    14:00 +16°C° 0 mm 5 mps 750 mmHg 39%
    15:00 +15°C° 0 mm 5 mps 750 mmHg 43%
    16:00 +14°C° 0 mm 5 mps 749 mmHg 48%
    17:00 +13°C° 0 mm 5 mps 749 mmHg 52%
    18:00 +10°C° 0 mm 5 mps 749 mmHg 57%
    19:00 +9°C° 0 mm 5 mps 749 mmHg 62%
    20:00 +8°C° 0 mm 4 mps 749 mmHg 67%
    21:00 +8°C° 0 mm 4 mps 749 mmHg 69%
    22:00 +7°C° 0 mm 4 mps 749 mmHg 72%
    23:00 +7°C° 0 mm 4 mps 749 mmHg 74%

    26 March, Tuesday

    Time Temperature Precipitation Wind Pressure Humidity
    00:00 +7°C° 0 mm 4 mps 749 mmHg 75%
    01:00 +7°C° 0 mm 4 mps 749 mmHg 77%
    02:00 +7°C° 0 mm 4 mps 749 mmHg 78%
    03:00 +6°C° 0 mm 4 mps 748 mmHg 79%
    04:00 +6°C° 0 mm 4 mps 748 mmHg 79%
    05:00 +7°C° 0 mm 3 mps 748 mmHg 79%
    06:00 +8°C° 0 mm 3 mps 749 mmHg 75%
    07:00 +9°C° 0 mm 3 mps 749 mmHg 71%
    08:00 +10°C° 0 mm 2 mps 749 mmHg 67%
    09:00 +13°C° 0 mm 2 mps 749 mmHg 59%
    10:00 +15°C° 0 mm 2 mps 749 mmHg 52%
    11:00 +17°C° 0 mm 3 mps 750 mmHg 44%
    12:00 +18°C° 0 mm 3 mps 750 mmHg 45%
    13:00 +18°C° 0 mm 3 mps 750 mmHg 46%
    14:00 +19°C° 0 mm 3 mps 750 mmHg 47%
    15:00 +17°C° 0.1 mm 4 mps 750 mmHg 53%
    16:00 +15°C° 0.1 mm 6 mps 751 mmHg 60%
    17:00 +12°C° 0.1 mm 7 mps 751 mmHg 67%
    18:00 +11°C° 0 mm 7 mps 752 mmHg 69%
    19:00 +10°C° 0 mm 7 mps 753 mmHg 71%
    20:00 +8°C° 0 mm 7 mps 753 mmHg 73%
    21:00 +8°C° 0.2 mm 7 mps 754 mmHg 74%
    22:00 +8°C° 0.2 mm 7 mps 754 mmHg 74%
    23:00 +7°C° 0.2 mm 6 mps 755 mmHg 74%

    27 March, Wednesday

    Time Temperature Precipitation Wind Pressure Humidity
    00:00 +7°C° 0.1 mm 6 mps 755 mmHg 74%
    01:00 +7°C° 0.1 mm 6 mps 755 mmHg 73%
    02:00 +7°C° 0.1 mm 6 mps 755 mmHg 72%
    03:00 +5°C° 0 mm 6 mps 756 mmHg 70%
    04:00 +5°C° 0 mm 7 mps 756 mmHg 67%
    05:00 +4°C° 0 mm 7 mps 756 mmHg 65%
    06:00 +4°C° 0 mm 7 mps 757 mmHg 63%
    07:00 +4°C° 0 mm 6 mps 757 mmHg 61%
    08:00 +6°C° 0 mm 5 mps 758 mmHg 59%
    09:00 +6°C° 0 mm 5 mps 758 mmHg 54%
    10:00 +7°C° 0 mm 5 mps 758 mmHg 48%
    11:00 +8°C° 0 mm 5 mps 758 mmHg 43%
    12:00 +10°C° 0 mm 4 mps 758 mmHg 42%
    13:00 +11°C° 0 mm 4 mps 758 mmHg 41%
    14:00 +11°C° 0 mm 4 mps 758 mmHg 40%
    15:00 +11°C° 0 mm 4 mps 759 mmHg 43%
    16:00 +10°C° 0 mm 4 mps 759 mmHg 46%
    17:00 +8°C° 0 mm 5 mps 759 mmHg 49%
    18:00 +7°C° 0 mm 4 mps 759 mmHg 51%
    19:00 +7°C° 0 mm 4 mps 760 mmHg 53%
    20:00 +6°C° 0 mm 4 mps 760 mmHg 56%
    21:00 +5°C° 0 mm 4 mps 760 mmHg 55%
    22:00 +5°C° 0 mm 4 mps 760 mmHg 54%
    23:00 +5°C° 0 mm 4 mps 760 mmHg 53%

    28 March, Thursday

    Time Temperature Precipitation Wind Pressure Humidity
    00:00 +5°C° 0 mm 4 mps 761 mmHg 54%
    01:00 +3°C° 0 mm 5 mps 761 mmHg 56%
    02:00 +3°C° 0 mm 5 mps 761 mmHg 57%
    03:00 +3°C° 0 mm 5 mps 761 mmHg 59%
    04:00 +2°C° 0 mm 6 mps 761 mmHg 60%
    05:00 +2°C° 0 mm 6 mps 761 mmHg 61%
    06:00 +3°C° 0 mm 6 mps 762 mmHg 59%
    07:00 +3°C° 0 mm 6 mps 762 mmHg 57%
    08:00 +4°C° 0 mm 7 mps 762 mmHg 56%
    09:00 +5°C° 0 mm 7 mps 762 mmHg 53%
    10:00 +6°C° 0 mm 7 mps 762 mmHg 50%
    11:00 +6°C° 0 mm 7 mps 763 mmHg 47%
    12:00 +8°C° 0 mm 7 mps 762 mmHg 45%
    13:00 +8°C° 0 mm 7 mps 762 mmHg 44%
    14:00 +8°C° 0 mm 7 mps 762 mmHg 42%
    15:00 +6°C° 0 mm 7 mps 762 mmHg 43%
    16:00 +6°C° 0 mm 7 mps 762 mmHg 44%
    17:00 +5°C° 0 mm 7 mps 762 mmHg 44%
    18:00 +4°C° 0 mm 7 mps 762 mmHg 47%
    19:00 +3°C° 0 mm 6 mps 762 mmHg 49%
    20:00 +2°C° 0 mm 6 mps 763 mmHg 52%
    21:00 +2°C° 0 mm 5 mps 763 mmHg 53%
    22:00 +2°C° 0 mm 5 mps 763 mmHg 53%
    23:00 +2°C° 0 mm 5 mps 763 mmHg 54%
    Show more